Mount Holly, NJ

10:31 AM EDT on October 20, 2019 (GMT -0400)
South Jersey Regional

Weather History for KVAY - August, 2019

Change the Weather History Date:

Thursday, August 22, 2019

  Actual Average (KPNE) Record (KPNE)
Temperature  
Mean Temperature 82 °F -  
Max Temperature 91 °F 82 °F 95 °F (2003)
Min Temperature 72 °F 65 °F 55 °F (2004)
Cooling Degree Days 16    
Growing Degree Days 32 (Base 50)    
Moisture  
Dew Point 70 °F    
Average Humidity 73    
Maximum Humidity 97    
Minimum Humidity 45    
Precipitation  
Precipitation 0.10 in - - ()
Sea Level Pressure  
Sea Level Pressure 29.88 in    
Wind  
Wind Speed 3 mph (WSW)    
Max Wind Speed 9 mph    
Max Gust Speed -    
Visibility 10 miles    
Events Rain    
Averages and records for this station are not official NWS values.
T = Trace of Precipitation, MM = Missing Value Source: NWS Daily Summary

Daily Weather History Graph

Daily Weather History Graph

Search for Another Location

Airport or City:

Astronomy

Aug. 22, 2019 Rise Set
Actual Time 6:17 AM EDT 7:46 PM EDT
Civil Twilight 5:49 AM EDT 8:14 PM EDT
Nautical Twilight 5:14 AM EDT 8:48 PM EDT
Astronomical Twilight 4:38 AM EDT 9:24 PM EDT
Moon 11:35 PM EDT (8/22) 12:50 PM EDT (8/22)
Length of Visible Light 14h 25m
Length of Day
13h 28m
Waning Gibbous, 60% of the Moon is Illuminated
Aug 22
Waning Gibbous
Aug 23
Last Quarter
Aug 30
New
Sep 5
First Quarter
Sep 14
Full

Hourly Weather History & Observations

Time (EDT) Temp. Heat Index Dew Point Humidity Pressure Visibility Wind Dir Wind Speed Gust Speed Precip Events Conditions
12:54 AM 72.0 °F - 71.1 °F 97% 29.87 in 10.0 mi Calm Calm - N/A   Clear
1:54 AM 75.9 °F - 73.0 °F 91% 29.86 in 10.0 mi SW 4.6 mph - N/A   Mostly Cloudy
2:54 AM 75.0 °F - 73.0 °F 94% 29.85 in 10.0 mi Calm Calm - N/A   Partly Cloudy
3:54 AM 75.0 °F - 73.0 °F 94% 29.84 in 10.0 mi SW 5.8 mph - N/A   Clear
4:54 AM 75.0 °F - 72.0 °F 90% 29.84 in 10.0 mi WSW 4.6 mph - N/A   Clear
5:54 AM 73.9 °F - 71.1 °F 91% 29.86 in 10.0 mi SW 4.6 mph - N/A   Clear
6:54 AM 73.9 °F - 71.1 °F 91% 29.89 in 10.0 mi SW 4.6 mph - N/A   Clear
7:54 AM 75.0 °F - 71.1 °F 87% 29.90 in 10.0 mi SW 3.5 mph - N/A   Clear
8:54 AM 79.0 °F - 71.1 °F 77% 29.92 in 10.0 mi West 5.8 mph - N/A   Clear
9:54 AM 79.0 °F - 70.0 °F 74% 29.92 in 10.0 mi West 8.1 mph - N/A   Clear
10:54 AM 82.9 °F 87.0 °F 70.0 °F 65% 29.92 in 10.0 mi Variable 5.8 mph - N/A   Clear
11:54 AM 86.0 °F 90.1 °F 69.1 °F 57% 29.91 in 10.0 mi WSW 6.9 mph - N/A   Clear
12:54 PM 87.1 °F 89.9 °F 66.9 °F 51% 29.89 in 10.0 mi WNW 4.6 mph - N/A   Clear
1:54 PM 88.0 °F 91.4 °F 68.0 °F 51% 29.90 in 10.0 mi Variable 5.8 mph - N/A   Scattered Clouds
2:54 PM 90.0 °F 93.6 °F 68.0 °F 48% 29.88 in 10.0 mi West 9.2 mph - N/A   Mostly Cloudy
3:54 PM 91.0 °F 94.3 °F 66.9 °F 45% 29.87 in 10.0 mi WSW 8.1 mph - N/A   Partly Cloudy
4:54 PM 91.0 °F 94.3 °F 66.9 °F 45% 29.84 in 10.0 mi WSW 5.8 mph - N/A   Clear
5:54 PM 89.1 °F 93.7 °F 69.1 °F 52% 29.85 in 10.0 mi Calm Calm - N/A   Clear
6:54 PM 86.0 °F 90.7 °F 70.0 °F 59% 29.86 in 10.0 mi Calm Calm - N/A   Partly Cloudy
7:54 PM 82.0 °F 85.5 °F 69.1 °F 65% 29.86 in 10.0 mi Calm Calm - N/A   Clear
8:54 PM 80.1 °F 83.2 °F 70.0 °F 71% 29.89 in 10.0 mi Calm Calm - N/A   Scattered Clouds
9:54 PM 79.0 °F - 71.1 °F 77% 29.89 in 10.0 mi Calm Calm - N/A   Mostly Cloudy
10:54 PM 77.0 °F - 72.0 °F 84% 29.94 in 7.0 mi NNW 5.8 mph - 0.03 in Rain Light Rain
11:54 PM 75.0 °F - 73.0 °F 94% 29.93 in 5.0 mi Calm Calm - 0.07 in Rain Light Rain